Cedar Falls, IA

5:51 PM CST on December 04, 2016 (GMT -0600)
Waterloo Municipal

Weather History for KALO - April, 2014

Change the Weather History Date:

Saturday, April 5, 2014

  Actual Average Record
Temperature  
Mean Temperature 37 °F 44 °F  
Max Temperature 52 °F 56 °F 84 °F (1991)
Min Temperature 22 °F 33 °F 9 °F (1982)
Degree Days  
Heating Degree Days 28 21  
Month to date heating degree days 141 107  
Since 1 July heating degree days 7681 6432  
Cooling Degree Days 0 0  
Month to date cooling degree days 0 0  
Year to date cooling degree days 0 0  
Moisture  
Dew Point 26 °F    
Average Humidity 66    
Maximum Humidity 96    
Minimum Humidity 35    
Precipitation  
Precipitation 0.00 in 0.10 in 0.82 in (1958)
Month to date precipitation 0.83 0.47  
Year to date precipitation 4.96 4.35  
Snow  
Snow 0.00 in 0.10 in 4.90 in (1982)
Month to date snowfall T 0.5  
Since 1 July snowfall 57.6 34.0  
Snow Depth 0.00 in    
Sea Level Pressure  
Sea Level Pressure 30.14 in    
Wind  
Wind Speed 6 mph (SSW)    
Max Wind Speed 16 mph    
Max Gust Speed 19 mph    
Visibility 8 miles    
Events      
T = Trace of Precipitation, MM = Missing Value Source: NWS Daily Summary

Daily Weather History Graph

Daily Weather History Graph

Search for Another Location

Airport or City:

Trip Planner

Search our weather history database for the weather conditions in past years. The results will help you decide how hot, cold, wet, or windy it might be!

Date:

Astronomy

Apr. 05, 2014 Rise Set
Actual Time 6:45 AM CDT 7:40 PM CDT
Civil Twilight 6:16 AM CDT 8:08 PM CDT
Nautical Twilight 5:42 AM CDT 8:43 PM CDT
Astronomical Twilight 5:06 AM CDT 9:18 PM CDT
Moon 10:48 AM CDT (4/5) 12:54 AM CDT (4/5)
Length of Visible Light 13h 52m
Length of Day
12h 55m
Waxing Crescent, 34% of the Moon is Illuminated
Apr 5
Waxing Crescent
Apr 7
First Quarter
Apr 15
Full
Apr 22
Last Quarter
Apr 29
New

Hourly Weather History & Observations

Time (CDT) Temp. Windchill Dew Point Humidity Pressure Visibility Wind Dir Wind Speed Gust Speed Precip Events Conditions
12:54 AM 30.0 °F 23.2 °F 26.1 °F 85% 30.14 in 10.0 mi West 6.9 mph - N/A   Clear
1:54 AM 28.9 °F 22.8 °F 26.1 °F 89% 30.14 in 10.0 mi West 5.8 mph - N/A   Clear
2:54 AM 28.0 °F 22.8 °F 25.0 °F 88% 30.15 in 10.0 mi West 4.6 mph - N/A   Clear
3:54 AM 25.0 °F 20.7 °F 23.0 °F 92% 30.15 in 10.0 mi West 3.5 mph - N/A   Clear
4:54 AM 26.1 °F 21.9 °F 24.1 °F 92% 30.15 in 10.0 mi WSW 3.5 mph - N/A   Clear
5:54 AM 25.0 °F - 23.0 °F 92% 30.16 in 8.0 mi Calm Calm - N/A   Clear
6:54 AM 23.0 °F - 21.9 °F 96% 30.18 in 5.0 mi Calm Calm - N/A   Clear
7:16 AM 24.1 °F - 21.9 °F 91% 30.15 in 1.5 mi Calm Calm - N/A   Clear
7:24 AM 24.1 °F - 23.0 °F 96% 30.16 in 0.8 mi Calm Calm - N/A   Clear
7:28 AM 24.1 °F - 23.0 °F 96% 30.16 in 2.5 mi Calm Calm - N/A   Clear
7:35 AM 24.1 °F - 23.0 °F 96% 30.16 in 4.0 mi Calm Calm - N/A   Clear
7:54 AM 28.0 °F - 26.1 °F 92% 30.20 in 5.0 mi Calm Calm - N/A   Clear
8:54 AM 33.1 °F - 30.0 °F 89% 30.20 in 8.0 mi Calm Calm - N/A   Clear
9:54 AM 37.9 °F 32.7 °F 28.9 °F 70% 30.20 in 10.0 mi SW 6.9 mph - N/A   Clear
10:54 AM 41.0 °F 35.8 °F 28.0 °F 60% 30.21 in 10.0 mi WSW 8.1 mph - N/A   Clear
11:54 AM 44.1 °F 39.0 °F 28.0 °F 53% 30.20 in 10.0 mi SSW 9.2 mph - N/A   Clear
12:54 PM 46.0 °F 41.4 °F 28.9 °F 51% 30.20 in 10.0 mi WSW 9.2 mph - N/A   Clear
1:54 PM 46.9 °F - 30.0 °F 52% 30.17 in 10.0 mi WSW 9.2 mph - N/A   Clear
2:54 PM 48.9 °F - 27.0 °F 43% 30.14 in 10.0 mi SSW 8.1 mph - N/A   Clear
3:54 PM 50.0 °F - 26.1 °F 39% 30.12 in 10.0 mi SSW 3.5 mph - N/A   Clear
4:54 PM 51.1 °F - 25.0 °F 36% 30.10 in 10.0 mi SW 10.4 mph - N/A   Clear
5:54 PM 52.0 °F - 25.0 °F 35% 30.09 in 10.0 mi South 11.5 mph - N/A   Clear
6:54 PM 50.0 °F - 26.1 °F 39% 30.09 in 10.0 mi South 9.2 mph - N/A   Clear
7:54 PM 45.0 °F 41.2 °F 26.1 °F 48% 30.08 in 10.0 mi South 6.9 mph - N/A   Clear
8:54 PM 44.1 °F 40.1 °F 27.0 °F 51% 30.08 in 10.0 mi SSE 6.9 mph - N/A   Clear
9:54 PM 42.1 °F 37.1 °F 27.0 °F 55% 30.07 in 10.0 mi SSE 8.1 mph - N/A   Clear
10:54 PM 39.9 °F 35.1 °F 27.0 °F 60% 30.07 in 10.0 mi SSE 6.9 mph - N/A   Clear
11:54 PM 42.1 °F 37.1 °F 28.0 °F 58% 30.07 in 10.0 mi SSE 8.1 mph - N/A   Overcast